Terug naar catalogus

STARLINK-6328

ActiefCommunicatieVLEO
NORAD 56523·PAYLOAD·🇺🇸 United States

Gelanceerd May 14, 2023 vanaf Cape Canaveral Space Force Station

Loading…

Volgende Passages (komende 24 uur)

TLE

VersSource: CelesTrak SupGP

Epoch: Sep 15, 2026, 02:56 UTC

1 56523C 23065W   26258.12270833 -.00023201  00000+0 -84045-3 0  2587
2 56523  43.0017 223.0815 0001625 267.0988 182.7269 15.27585905    16

Volg STARLINK-6328 in realtime met AllMySat

Download on the App Store